Weather in Togur

Russia / Tomsk District     58°21′38″N   82°49′53″E
temp.,
°C
wind,
m/s
gust,
m/s
humid.,
%
clouds,
%
prec.,
mm/h
press.,
hPa
HPBL,
m
16 may, sun
sun1601:00+9se119396 0.0 101713
04:00+8e239398 0.0 101658
07:00+8e3487100 0.1 1015173
10:00+9se3482100 0.3 1014374
13:00+8e3590100 1.2 1014357
16:00+8e4584100 0.1 1014405
19:00+9ene347792 0.1 1014614
22:00+8ene358699 0.0 1015309
17 may, mon
mon1701:00+7nne238795 0.0 1016155
04:00+6nne1285100 0.0 101780
07:00+7n1282100 0.0 1017190
10:00+9w1171100 0.0 1017538
13:00+10w126998 0.0 1017723
16:00+14wsw2460100 0.0 10151300
19:00+13ese3570100 0.1 1013429
22:00+11ese4983100 0.4 1011331
18 may, tue
tue1801:00+9se4892100 0.5 1008226
04:00+10e3395100 0.7 1006132
07:00+9ene3495100 0.8 1005197
10:00+9ene4592100 0.1 1006374
13:00+8ne5790100 0.1 1007473
16:00+8ne5789100 0.1 1009548
19:00+8ne378479 0.1 1010398
22:00+8n238550 0.0 101028
19 may, wed
wed1901:00+6ne4117544 0.0 1011216
04:00+3ne4117173 0.0 1012233
07:00+4ne5116198 0.0 1013351
10:00+8ne57345 0.0 10141180
13:00+11nne572978 0.0 10142389
16:00+12n5630100 0.0 10132642
19:00+9n775599 0.2 10141439
22:00+6n5105459 0.2 1015582
20 may, thu
thu2001:00+3n612463 0.2 1017501
04:00+1nnw511540 0.0 1018371
07:00+1nnw610520 0.0 1019534
10:00+5n793929 0.0 10201800
13:00+8nnw5631100 0.0 10192425
16:00+10nw552761 0.0 10192377
19:00+10wnw4329100 0.0 10201921
22:00+7w2240100 0.0 102015